Flag for Japan Weather past 2 weeks in Yokohama, Japan

Now
86 °F

Partly sunny.


Feels Like: 95 °F
Forecast: 79 / 88 °F
Wind: 17 mph from South

Location: Tokyo International Airport

Current Time: Jul 23, 2014 at 5:10:51 PM

Latest Report: Jul 23, 2014 at 2:30 PM


Visibility: N/A

Pressure: 29.62 "Hg

Humidity: 70%

Dew point: 75 °F

Location of YokohamaLocation

Historic Weather in Yokohama — Graph

°F

Yokohama temperature yesterday

Maximum temperature yesterday: 86 °F (at 1:00 PM)
Minimum temperature yesterday: 75 °F (at 5:00 AM)
Average temperature yesterday: 80 °F

Past Weeks' High & Low Weather Summary

 TemperatureHumidityPressure
High90 °F (Jul 12, 3:00 PM)100% (Jul 11, 4:00 AM)29.95 "Hg (Jul 11, 4:00 AM)
Low72 °F (Jul 19, 2:00 AM)52% (Jul 8, 3:30 PM)29.21 "Hg (Jul 11, 5:00 AM)
Average79 °F81%29.74 "Hg
* Reported Jul 8 2:00 PM — Jul 23 2:30 PM, Yokohama, Weather by CustomWeather, © 2014

Note: Actual official high and low records may vary slightly from our data, if they occured in-between our weather recording intervals... More about our weather records

Advertising

Yokohama weather history for previous 24 hours

 ConditionsComfort  
Time TempWeatherWind HumidityBarometerVisibility
2:30 PM
Jul 23
86 °FPartly sunny.17 mph70%29.62 "HgN/A
2:00 PM86 °FPartly sunny.14 mph70%29.62 "HgN/A
1:30 PM88 °FClear.12 mph66%29.65 "Hg5 mi
1:00 PM88 °FClear.8 mph62%29.65 "Hg5 mi
12:30 PM88 °FClear.8 mph66%29.65 "Hg4 mi
12:00 PM86 °FPartly sunny.8 mph75%29.68 "Hg4 mi
11:30 AM84 °FPartly sunny.6 mph79%29.68 "Hg4 mi
11:00 AM84 °FFog.6 mph79%29.68 "Hg4 mi
10:30 AM84 °FFog.8 mph74%29.68 "Hg4 mi
10:00 AM82 °FFog.7 mph84%29.68 "Hg4 mi
9:30 AM84 °FFog.7 mph79%29.71 "Hg4 mi
9:00 AM82 °FFog.6 mph84%29.71 "Hg4 mi
8:00 AM81 °FPartly sunny.6 mph84%29.68 "Hg4 mi
2:00 AM79 °FClear.3 mph84%29.71 "Hg10 mi
1:30 AM79 °FPassing clouds.3 mph84%29.71 "HgN/A
1:00 AM81 °FPassing clouds.5 mph79%29.71 "HgN/A
12:30 AM81 °FClear.9 mph79%29.71 "Hg10 mi
12:00 AM81 °FClear.12 mph79%29.71 "Hg10 mi
11:30 PM
Jul 22
81 °FPassing clouds.12 mph79%29.71 "HgN/A
11:00 PM81 °FClear.10 mph79%29.74 "Hg10 mi
10:30 PM81 °FClear.10 mph79%29.74 "Hg10 mi
10:00 PM81 °FClear.10 mph79%29.74 "Hg10 mi
9:30 PM81 °FClear.9 mph84%29.74 "Hg10 mi
9:00 PM81 °FClear.10 mph84%29.74 "Hg6 mi
8:30 PM79 °FClear.13 mph89%29.74 "Hg6 mi
8:00 PM79 °FClear.13 mph89%29.74 "Hg6 mi
7:30 PM81 °FClear.9 mph84%29.74 "Hg6 mi
7:00 PM81 °FClear.14 mph84%29.71 "Hg5 mi
6:30 PM81 °FClear.15 mph84%29.71 "Hg6 mi
6:00 PM82 °FSunny.14 mph79%29.71 "Hg10 mi
5:30 PM82 °FSunny.15 mph79%29.71 "Hg10 mi
5:00 PM82 °FSunny.15 mph79%29.71 "Hg10 mi
Weather by CustomWeather, © 2014

See weather overviewHow to use our weather pages